{"data":{"norad_id":59503,"epoch":"2026-09-21T09:48:27.240768Z","epoch_age_seconds":86812,"freshness":"FRESH","line1":"1 59503U 24071V   26264.40864862  .00001250  00000+0  54928-4 0  9993","line2":"2 59503  43.0034 314.8256 0001429 264.0222  96.0466 15.27585571138134","mean_motion":15.27585571,"eccentricity":0.0001429,"inclination_deg":43.0034,"raan_deg":314.8256,"arg_perigee_deg":264.0222,"mean_anomaly_deg":96.0466,"bstar":5.4928e-5,"rev_number":13813,"period_min":94.266404929273,"perigee_km":482.05195340286,"apogee_km":484.01287562153,"semimajor_km":6861.1694145122,"source":"CELESTRAK","updated_at":"2026-09-22T09:00:48.961035Z"}}